Theta_e
327 328 328 328 328 328 329 330 329 327 329 331 332 332 332 332 332 332 332 331 331 331 330 330 330 330 331 331 331 331 330 331 330 330 330 330 329 329 329 330 331 329 329 329 329 330 330 329 328 328 328 328 327 326 325 325 326 325 324 321 316 313 312 312 310 309 309 311 311 311 309 308 308 307 306 306 305 303 302 302 302 304 306 307 308
328 329 329 329 328 327 327 329 329 327 326 329 332 331 332 333 333 331 330 329 330 329 328 329 330 330 330 330 329 329 329 329 330 329 329 329 329 329 329 329 330 329 328 328 329 329 329 329 329 328 329 328 327 326 326 326 326 326 325 325 321 316 315 313 310 309 310 310 310 310 309 309 309 309 307 306 306 305 304 303 303 303 305 306 307
329 329 329 329 328 327 327 328 329 328 326 327 330 331 331 332 331 330 329 329 328 328 327 328 329 329 329 329 328 328 328 328 328 328 328 329 329 329 329 329 329 329 328 327 328 329 329 329 329 330 329 329 328 327 327 327 327 326 325 325 323 321 320 317 312 310 310 310 310 310 309 309 310 311 309 307 306 306 306 306 305 304 304 305 306
328 329 329 329 328 329 328 328 329 328 326 326 329 331 331 330 330 329 328 327 327 326 327 327 328 328 328 329 328 328 328 328 327 328 328 328 329 329 329 329 329 329 328 328 328 328 329 329 329 330 330 329 329 329 329 328 327 326 325 325 324 322 323 319 313 310 311 310 311 311 310 310 311 311 310 308 306 307 307 307 307 306 305 305 306
328 328 328 328 329 329 329 329 328 328 327 326 327 330 331 329 328 326 326 327 326 326 326 326 327 328 328 329 328 328 328 328 328 328 327 328 328 328 328 328 329 329 328 328 328 328 329 329 329 329 330 330 329 329 329 328 326 325 325 325 324 322 323 319 312 310 311 311 311 311 310 311 311 311 311 309 307 306 307 307 307 307 307 307 308
327 327 327 327 329 330 330 329 328 327 327 326 325 328 329 328 326 326 326 326 326 325 325 325 326 327 327 328 328 328 327 327 327 327 327 328 328 328 328 328 328 328 328 328 329 329 329 329 329 329 330 330 329 329 328 326 326 325 325 324 323 322 323 319 312 310 311 310 311 311 311 311 311 310 311 310 308 307 306 306 307 308 309 309 310
326 327 327 327 328 329 329 329 328 328 328 327 325 326 327 327 326 326 325 325 325 324 323 324 325 325 326 328 328 327 327 327 327 327 327 327 327 327 327 326 326 327 328 328 329 329 329 329 329 329 330 329 329 328 326 325 325 325 324 323 323 322 322 318 312 310 311 310 310 311 311 311 311 311 311 310 308 307 307 306 307 308 309 310 310
323 325 327 327 327 327 327 327 327 328 328 327 326 325 326 326 325 325 325 325 324 322 323 324 324 325 326 327 327 326 326 326 326 326 326 327 327 327 326 326 325 326 327 327 328 329 329 329 330 330 330 329 328 327 326 325 325 325 323 322 321 321 320 316 312 311 311 311 311 312 311 311 311 311 310 309 307 307 308 307 308 310 310 311 311
319 322 324 325 326 327 326 326 327 327 327 326 326 325 326 325 325 325 324 323 321 322 323 323 323 324 326 326 325 325 324 324 324 324 325 325 325 325 325 325 325 325 326 326 327 328 328 328 330 329 329 328 327 326 326 323 323 323 322 321 320 319 318 315 313 312 312 312 311 311 311 311 311 311 310 309 309 310 310 309 308 310 310 310 311
315 317 320 322 325 326 325 325 326 327 326 326 325 325 325 325 325 324 322 321 321 322 323 323 323 324 325 324 323 323 323 322 322 322 323 323 323 323 323 323 324 324 324 325 327 328 328 328 329 328 328 328 327 326 325 322 321 321 320 319 318 316 316 315 314 313 314 313 313 312 311 311 311 311 310 310 310 311 310 309 309 310 310 309 310
313 314 316 321 324 325 325 325 326 326 326 326 326 325 325 325 323 321 321 320 321 322 322 323 324 324 323 323 322 321 322 322 322 322 322 321 321 321 321 322 323 323 323 324 325 327 327 326 327 326 326 325 325 325 324 322 321 320 320 319 318 316 316 316 315 315 316 316 316 315 314 314 313 313 312 312 313 312 311 310 310 309 309 308 309
310 311 313 318 322 323 324 325 325 326 326 326 325 325 324 323 321 320 320 320 320 320 320 321 321 321 321 321 321 321 321 321 321 321 321 322 321 321 321 321 322 322 323 323 324 325 325 324 325 324 322 320 320 320 321 320 320 319 318 318 317 317 317 317 317 317 317 318 318 316 316 316 317 318 317 316 316 316 315 314 313 312 312 311 311
307 309 310 314 317 319 323 325 325 326 326 325 325 324 323 321 320 320 319 318 318 318 318 318 318 318 319 319 319 319 320 319 320 320 320 321 321 321 321 320 321 321 322 322 323 323 322 322 321 319 316 315 315 315 316 316 316 315 315 315 315 315 315 315 315 314 314 314 314 313 314 314 315 317 317 316 317 318 318 318 318 318 317 316 316
306 307 308 310 312 315 320 323 324 325 325 324 324 323 321 319 318 318 317 317 316 316 316 316 316 316 317 318 317 318 318 318 318 319 320 320 320 321 320 320 320 321 321 321 321 320 319 318 317 315 314 314 315 316 316 317 317 316 317 317 317 317 316 316 316 316 316 316 315 315 316 316 317 317 318 318 318 319 319 319 319 319 319 318 318
304 305 306 308 308 311 315 318 321 322 323 324 323 321 320 318 315 314 314 314 314 314 314 314 314 314 314 315 315 315 316 316 316 319 320 320 320 320 320 320 320 319 318 319 318 317 317 317 317 317 317 318 319 319 320 320 320 320 320 320 320 319 319 318 318 318 318 317 317 317 318 318 318 319 319 319 319 319 318 318 319 318 318 318 318
303 304 305 306 307 307 308 311 315 316 318 321 321 318 317 316 313 311 311 311 311 312 311 311 312 311 311 312 313 313 313 313 315 318 321 320 320 320 320 320 319 317 317 317 317 316 316 317 317 318 318 319 319 319 319 319 319 319 319 320 320 320 319 319 318 318 318 318 317 317 317 317 317 318 317 317 317 316 316 316 316 315 314 314 314
303 303 304 304 306 307 306 307 309 310 311 313 315 314 313 311 310 309 309 307 307 307 307 307 307 308 309 311 312 312 313 313 315 319 321 321 321 321 321 319 318 317 316 316 316 315 315 316 317 317 317 317 316 317 317 317 317 316 315 315 315 315 314 313 312 312 312 312 312 311 311 311 311 311 311 309 308 307 308 309 310 309 309 312 313
301 302 303 303 304 306 306 306 306 307 307 308 309 310 309 308 307 307 306 305 303 303 304 304 304 305 306 308 309 311 312 313 315 319 321 321 321 321 321 320 318 317 315 314 314 314 314 313 314 315 315 313 313 313 314 314 314 312 310 309 308 307 307 306 306 305 304 304 304 303 303 303 303 304 303 303 302 301 301 302 302 303 306 310 312
301 301 302 303 303 304 306 306 306 306 306 306 307 307 307 306 305 305 304 304 302 302 302 302 302 302 302 303 305 307 308 309 313 317 320 321 321 321 321 320 317 314 313 311 311 311 311 310 310 311 310 309 308 308 309 309 308 306 305 304 302 301 300 301 302 302 302 302 301 301 301 301 302 302 302 303 303 302 302 302 303 304 305 308 309
300 301 302 302 303 303 304 305 306 306 306 306 306 306 306 305 305 304 303 302 301 301 301 301 301 300 300 301 301 301 302 303 308 313 317 319 320 321 321 320 316 312 310 309 309 308 308 308 307 307 306 305 304 304 304 304 303 301 300 299 299 299 299 300 301 301 302 302 303 303 303 303 304 304 304 305 305 305 305 305 305 305 305 305 306
300 301 301 302 302 302 302 303 304 305 306 306 306 306 305 305 304 304 303 302 301 301 300 300 300 300 300 300 300 300 300 300 302 307 311 314 316 318 318 318 315 312 309 308 307 306 306 306 305 304 303 302 301 300 300 299 299 298 298 299 300 301 302 302 303 303 303 304 304 304 303 303 304 304 304 304 304 304 304 304 304 304 303 303 303
299 300 301 301 301 301 301 302 302 303 304 306 306 305 305 304 303 303 303 303 302 301 300 300 300 299 299 299 299 299 300 299 299 301 304 307 310 312 313 312 311 310 308 305 304 303 302 301 301 300 299 299 299 299 299 299 300 300 301 303 303 304 304 303 304 304 304 304 303 302 302 302 302 302 302 302 302 302 302 303 303 302 302 301 300
300 300 300 300 300 300 300 301 302 302 302 303 303 303 304 304 303 303 302 302 302 301 301 300 300 299 299 298 299 299 299 299 299 299 300 301 303 305 306 306 306 306 305 302 301 300 299 298 298 298 299 299 300 301 301 302 303 303 304 304 304 304 303 303 303 303 303 302 301 301 300 300 300 300 300 300 300 300 301 301 301 301 301 301 300
301 300 300 300 299 299 300 300 301 301 302 302 302 302 302 303 304 304 303 303 302 301 301 301 301 300 300 300 300 300 299 298 299 299 299 299 300 300 301 301 301 302 301 300 298 298 298 299 299 300 301 301 302 302 303 303 303 304 304 303 303 303 303 302 302 301 301 300 300 299 299 299 299 299 299 299 299 299 300 300 300 300 300 300 300
301 301 301 300 300 299 298 299 299 300 301 301 301 301 301 302 302 303 303 304 303 302 301 301 301 301 301 300 300 299 299 298 299 299 300 300 300 300 300 300 299 299 299 299 298 299 300 301 301 302 302 302 302 302 302 302 302 302 302 301 301 301 301 301 301 300 300 299 299 298 298 298 298 297 298 298 298 299 299 299 299 299 299 299 299
300 301 301 301 300 300 298 297 298 298 299 300 300 300 300 301 301 301 302 303 303 303 302 301 301 301 301 301 300 300 299 298 298 299 299 299 300 300 299 298 298 298 299 299 300 301 301 301 301 301 301 301 301 301 300 300 300 300 300 300 300 300 300 300 300 299 299 298 298 297 297 297 297 297 297 298 298 297 297 297 297 297 297 297 297
300 300 300 300 300 300 298 297 297 297 298 298 299 299 300 300 300 300 300 301 302 302 302 301 301 301 301 301 300 299 298 298 297 298 298 298 298 298 298 298 298 299 300 300 301 301 301 301 301 301 300 300 300 300 300 300 300 300 300 299 299 299 299 299 298 298 297 297 296 296 296 296 296 296 296 296 296 295 295 295 295 296 296 296 296
299 299 300 300 299 299 298 298 297 296 297 297 298 299 299 300 300 300 300 300 301 301 301 301 301 300 301 300 299 298 298 298 298 297 298 297 297 297 297 298 300 300 300 300 300 300 300 300 300 300 300 300 300 299 299 299 299 299 298 298 298 298 297 297 297 296 296 295 295 295 295 295 295 294 294 294 294 294 294 294 295 295 295 295 295
299 299 299 300 300 299 299 298 297 297 296 296 297 297 298 299 299 300 300 300 300 301 301 301 300 300 300 299 299 298 298 298 298 298 298 298 298 298 298 299 300 300 300 300 300 300 300 300 300 299 299 299 299 298 298 298 298 298 297 297 297 296 296 296 296 295 295 294 294 294 293 293 293 293 293 293 293 293 294 294 295 295 295 295 295
299 299 299 299 299 299 299 299 298 297 297 297 296 296 296 297 297 298 299 299 299 298 298 299 299 299 298 298 298 298 298 298 298 298 298 298 298 298 299 300 300 299 299 300 300 300 299 299 299 299 298 298 298 297 297 297 297 296 296 296 296 295 295 295 294 293 293 293 292 292 292 292 292 292 292 292 292 293 293 294 294 294 295 295 295
298 299 298 298 299 300 299 299 298 298 297 297 297 296 296 296 296 296 296 297 296 297 297 297 297 297 297 297 297 297 297 297 298 298 298 298 298 298 299 299 299 299 299 299 299 299 299 298 298 298 297 297 297 297 296 296 296 295 295 295 295 294 294 293 292 292 292 291 291 291 291 291 291 292 292 292 292 293 293 293 293 294 294 295 295
298 298 298 298 298 299 299 299 299 298 297 297 297 296 296 295 295 295 295 295 296 296 296 296 296 296 296 297 297 297 297 297 298 298 298 298 298 298 299 299 299 299 299 299 299 298 297 297 297 296 296 296 296 295 295 295 295 295 295 294 294 293 293 292 291 291 291 291 291 291 291 291 291 292 292 292 292 292 293 293 293 294 294 294 295
298 298 298 298 298 298 298 298 298 298 298 298 297 297 296 296 295 295 295 295 295 296 296 296 296 296 296 296 296 296 297 297 298 298 299 298 298 299 299 299 299 299 299 298 297 296 296 296 295 295 295 295 295 294 294 294 294 294 294 293 292 292 291 291 291 291 291 291 291 291 291 291 291 291 291 292 292 292 292 293 293 293 293 294 294
298 298 297 297 298 297 297 298 298 298 297 298 298 297 297 296 296 296 295 295 295 295 295 296 296 296 296 296 296 296 297 297 298 298 299 298 298 298 298 298 298 297 298 297 296 296 295 295 295 295 295 294 294 294 294 293 293 293 292 292 291 291 291 291 291 290 290 290 291 290 291 291 291 291 291 291 292 292 292 292 292 293 293 292 293
299 298 297 296 297 297 297 298 298 297 297 297 298 298 297 297 296 296 295 295 295 295 295 295 296 296 296 296 296 296 296 297 297 298 298 298 298 298 298 297 296 296 296 296 295 295 295 294 294 294 294 294 294 293 293 293 292 292 291 291 291 291 290 290 290 290 290 290 290 290 290 291 291 291 291 291 291 291 292 292 292 292 292 292 292
299 299 297 296 296 297 298 298 298 297 297 297 297 298 298 297 296 295 295 295 295 295 295 295 295 295 296 296 295 295 296 296 296 297 297 297 297 297 297 296 295 295 294 294 294 294 294 294 294 294 294 293 293 293 293 292 292 291 290 290 290 290 290 290 290 290 290 290 290 290 290 290 291 291 291 291 291 291 291 292 292 292 292 292 292
299 299 297 296 296 297 297 298 297 297 297 297 297 297 298 298 297 296 295 295 295 295 294 294 295 295 295 295 295 295 295 295 295 296 296 296 296 296 296 295 294 294 293 293 293 293 293 293 293 293 293 293 293 293 292 292 291 290 290 290 290 290 290 290 290 290 290 290 290 290 290 290 290 290 291 291 291 291 291 291 292 292 292 292 292
299 298 296 296 296 296 297 297 297 297 297 297 297 297 297 297 298 297 296 296 295 295 294 295 295 295 295 295 295 295 294 294 294 294 294 295 295 295 294 294 293 293 293 292 292 292 292 292 293 293 293 293 292 292 292 292 291 291 290 290 290 290 290 290 290 290 290 290 290 290 290 290 290 290 290 291 291 291 291 291 291 292 292 292 292
299 298 297 297 296 297 297 297 297 297 297 297 297 297 296 296 297 297 296 296 295 295 294 294 295 295 295 294 294 294 294 294 293 293 293 293 293 293 293 293 293 292 292 292 292 291 291 292 292 293 292 292 292 292 292 292 292 291 290 290 290 290 290 290 290 290 290 290 290 290 290 290 290 290 290 290 290 291 291 291 291 291 291 291 291
299 299 298 298 298 298 298 297 297 297 297 297 296 297 296 296 296 296 296 296 295 294 294 294 294 294 294 294 294 294 294 293 293 292 292 292 292 292 292 291 291 291 291 291 291 291 291 291 292 292 292 292 292 292 292 292 291 291 291 290 291 291 290 290 290 290 290 290 290 290 290 290 290 290 290 290 290 290 290 290 290 290 291 291 291
299 299 298 298 298 298 298 297 297 297 297 297 296 296 296 296 296 296 296 295 295 294 294 294 294 294 294 294 294 294 293 293 292 292 292 292 292 291 291 291 291 291 291 291 291 290 290 291 292 292 292 292 292 292 292 292 291 291 290 290 290 290 290 290 290 290 290 290 290 290 290 290 290 290 290 290 290 290 290 290 290 290 290 291 291
298 298 298 298 298 298 297 297 297 297 297 297 296 296 296 295 295 295 295 295 294 294 294 294 294 294 294 294 293 293 293 292 292 292 292 292 292 291 291 291 290 291 291 291 290 290 290 291 291 292 292 292 292 292 292 291 291 291 291 290 290 290 290 290 290 290 290 290 290 290 290 290 290 290 290 290 290 290 290 290 290 290 290 291 291
298 298 298 298 298 297 296 296 297 296 296 296 296 296 295 295 295 295 295 295 294 294 294 294 294 293 293 293 293 292 292 292 292 292 291 291 291 291 291 290 290 290 290 290 290 290 291 291 291 291 291 291 291 291 292 291 291 291 291 291 290 290 290 290 290 290 290 290 290 290 290 290 290 290 290 290 290 290 290 290 290 290 290 291 291
298 298 298 298 297 297 296 296 297 297 296 296 295 295 295 295 294 295 295 295 294 294 294 294 294 293 293 293 292 292 292 292 292 291 291 291 291 291 291 291 290 290 290 290 290 291 291 291 291 291 291 291 291 291 291 291 291 291 291 291 291 291 290 290 290 290 290 290 290 290 290 290 290 290 290 290 290 291 290 290 290 290 290 290 290
297 297 297 297 297 296 296 296 297 296 296 296 295 295 295 295 294 294 295 295 294 294 294 294 294 293 293 293 292 292 292 292 292 292 291 291 291 291 291 291 291 290 290 290 290 291 291 291 291 291 291 292 292 292 292 292 291 292 291 290 290 291 290 290 290 290 290 290 290 290 290 290 290 290 290 290 290 290 290 290 290 290 290 290 290
297 297 297 297 297 296 296 296 296 296 296 296 295 295 295 295 294 294 294 294 294 294 294 294 293 293 293 293 293 292 292 292 292 292 291 291 291 291 291 290 290 290 290 290 290 291 291 291 291 291 291 291 291 292 292 292 292 292 291 289 289 290 291 290 290 290 290 290 290 290 290 290 290 290 290 290 290 290 290 290 290 290 290 290 290
297 297 297 297 297 296 296 296 296 296 296 296 295 295 295 295 294 294 295 294 294 294 294 293 293 293 293 293 293 292 292 292 292 292 292 291 290 290 290 290 289 289 289 289 289 290 291 291 291 291 291 291 291 291 291 291 291 291 290 288 288 290 290 290 289 290 290 290 290 290 290 290 290 290 290 290 289 289 289 290 291 290 290 290 290
297 297 297 297 297 297 296 296 296 296 296 295 295 295 295 295 294 294 294 294 294 294 294 293 293 293 293 293 293 293 292 292 292 292 292 291 290 290 290 290 289 289 288 288 288 288 289 290 290 290 290 290 290 290 290 290 290 290 289 287 287 288 289 289 289 290 290 290 290 290 290 290 290 290 290 289 289 288 288 289 290 290 290 290 290
297 297 297 296 296 295 296 296 296 296 296 296 295 295 295 295 295 294 294 294 294 294 294 294 294 293 293 293 292 292 292 292 292 292 292 292 291 290 290 289 289 289 289 288 288 288 288 289 289 289 289 289 288 288 288 288 288 288 287 287 287 288 288 289 289 290 290 290 290 290 290 290 290 290 289 289 288 288 288 288 288 289 290 290 290
295 295 294 294 294 294 295 295 296 296 296 296 295 294 294 295 295 295 295 295 295 295 294 294 294 293 293 293 293 293 293 293 293 293 293 292 291 290 290 289 289 289 289 288 288 288 288 288 288 289 288 288 287 287 287 287 287 287 287 287 288 288 288 289 289 290 290 290 290 290 290 290 290 289 289 289 288 288 288 287 287 288 290 290 290
294 294 293 294 295 295 295 295 296 296 296 295 295 294 294 294 295 295 294 294 294 295 295 294 294 293 293 292 292 293 293 293 293 293 293 292 291 290 290 289 289 289 289 289 288 288 288 288 288 288 288 288 288 288 287 287 287 287 288 288 288 288 289 289 289 290 290 289 289 289 289 289 289 289 288 286 286 287 287 287 287 289 290 290 289
Wind_Speed
14 12 14 16 19 23 25 23 19 18 20 25 26 26 26 26 26 26 26 25 25 26 25 24 24 24 23 21 19 17 15 16 16 15 17 19 18 19 19 18 18 17 17 20 22 22 22 21 20 18 17 17 19 19 20 20 19 19 19 20 20 17 17 18 12 10 17 21 21 21 20 20 20 19 19 19 19 19 17 17 18 18 18 17 17
16 14 16 18 19 20 20 23 23 18 17 21 26 27 27 27 27 28 28 25 26 25 23 24 25 24 23 22 19 17 15 14 14 14 16 18 19 19 18 18 19 18 17 20 21 21 21 21 20 18 17 17 18 18 19 18 17 19 20 17 17 18 17 18 16 15 16 19 20 21 22 22 21 19 21 21 20 20 19 19 19 20 19 19 18
13 14 17 19 20 18 16 18 23 20 16 21 26 28 28 30 30 30 28 25 25 24 22 23 26 24 23 22 20 18 16 14 13 13 13 15 17 19 19 19 19 18 19 20 21 21 20 20 20 19 18 18 18 17 17 17 16 19 21 17 16 17 16 18 20 21 21 19 20 22 24 24 22 20 21 22 21 21 21 20 20 21 22 22 21
12 14 18 21 21 18 14 14 19 20 17 21 28 31 31 32 32 29 27 26 24 24 22 23 24 23 23 22 20 18 16 15 14 12 11 12 13 16 17 18 18 18 19 19 20 21 20 21 21 20 19 19 18 17 16 16 16 18 19 16 16 16 14 16 22 25 24 22 22 24 25 25 23 20 21 23 23 23 22 21 22 23 23 23 23
11 13 17 20 22 21 18 17 19 21 18 18 24 33 33 29 29 28 27 26 24 23 22 22 22 22 22 22 20 17 15 15 15 14 12 11 12 13 15 16 17 18 18 18 19 20 20 21 21 21 20 18 17 17 16 16 15 16 17 16 16 15 12 13 22 27 26 25 25 24 24 25 24 22 22 23 25 26 24 23 23 23 24 24 25
10 9 12 17 22 25 24 23 23 24 21 17 18 26 30 26 26 27 26 25 25 23 21 21 21 22 22 22 21 18 16 15 14 14 14 13 13 13 13 14 16 17 18 17 17 18 19 19 21 21 19 17 18 17 16 16 14 13 15 15 15 13 11 12 21 26 27 27 26 23 24 26 25 24 24 24 26 28 28 26 26 26 26 27 27
11 8 7 10 16 21 25 27 27 26 26 21 16 19 25 25 25 27 25 25 25 22 21 23 22 22 23 23 22 20 18 16 14 14 14 14 15 14 14 14 14 15 17 17 17 17 18 19 20 20 18 17 17 16 15 15 14 12 13 13 13 12 11 14 21 25 26 26 24 23 25 27 26 24 23 25 26 27 27 27 28 29 29 29 30
12 9 6 5 6 10 17 23 25 25 27 28 22 20 24 26 26 27 26 25 25 24 25 26 24 23 23 23 22 20 19 17 15 16 16 15 16 15 15 15 15 15 16 16 16 15 16 19 19 19 18 17 15 14 12 11 12 12 11 10 11 11 12 19 24 24 24 24 23 23 24 26 26 22 19 22 25 25 27 29 29 30 30 30 31
15 11 7 5 4 6 11 15 17 22 28 31 29 26 26 27 28 27 27 26 26 26 27 26 23 23 23 22 20 19 19 17 15 14 15 15 14 15 15 16 16 16 16 16 15 13 15 19 19 17 18 16 14 13 10 6 8 11 10 9 10 10 14 21 24 23 23 23 23 22 20 22 26 23 19 22 26 27 29 29 30 32 31 31 32
19 15 12 7 4 3 9 14 14 19 28 33 34 31 28 28 28 28 29 28 26 27 27 26 24 24 24 22 21 21 21 18 16 15 15 14 12 12 13 16 18 18 17 16 15 14 15 17 18 17 17 16 14 13 10 7 7 9 8 5 6 11 18 22 22 21 21 20 20 21 20 22 26 26 24 25 27 28 27 27 30 32 28 26 30
22 19 15 8 3 3 9 14 13 17 27 32 33 31 29 29 28 28 28 27 27 28 27 27 28 27 25 23 23 22 20 18 17 16 16 17 15 14 12 14 17 19 17 16 16 16 15 14 14 14 15 16 16 14 12 9 9 9 8 8 7 10 15 17 17 17 16 14 13 16 18 18 17 18 19 19 19 21 23 23 27 29 24 20 22
24 22 18 9 2 5 10 13 13 18 27 30 30 28 27 27 26 27 28 28 30 31 29 29 29 28 26 25 23 21 20 18 17 16 15 15 15 16 15 14 15 17 18 18 18 17 15 13 13 13 13 14 15 16 15 13 11 10 10 11 12 11 11 11 11 11 11 10 9 9 9 8 5 6 7 6 6 8 11 13 17 21 22 21 20
27 26 23 15 8 6 6 12 17 23 27 27 27 25 24 25 25 27 31 32 32 33 32 31 30 28 27 26 23 22 20 18 17 15 14 14 15 15 14 14 16 18 20 21 20 18 16 15 15 16 16 16 16 15 15 15 14 13 12 12 12 11 10 9 9 9 8 8 9 9 6 4 4 3 2 2 3 4 5 7 9 11 14 16 17
28 29 29 24 18 11 1 9 17 25 27 24 23 24 26 26 24 27 33 34 33 34 32 31 29 27 26 25 23 22 20 18 17 15 14 14 15 16 15 15 17 20 21 21 20 19 18 18 18 17 17 17 16 16 16 15 15 15 14 13 12 11 11 9 9 8 7 6 7 7 5 3 3 2 1 2 3 4 5 7 8 9 10 12 13
30 30 31 31 27 20 11 4 7 16 21 23 22 23 28 28 22 24 32 33 32 33 31 29 28 25 23 23 22 20 18 17 16 15 16 17 17 18 18 18 20 22 22 22 22 21 20 20 20 19 18 17 16 15 15 15 15 15 14 13 11 10 10 9 8 7 6 6 6 6 4 3 2 2 3 4 5 7 9 10 12 14 15 16 18
32 31 31 32 32 30 23 15 10 8 12 20 25 23 26 29 26 25 30 31 30 31 29 27 26 24 22 21 20 18 16 16 16 17 18 20 21 21 21 21 23 24 24 23 22 21 20 19 20 19 18 17 15 14 13 13 13 14 13 12 10 9 8 7 6 5 4 4 4 4 3 3 4 5 7 8 9 11 12 14 15 17 18 20 21
32 31 31 31 32 33 31 27 22 18 14 16 23 25 25 28 29 28 29 29 28 29 28 26 25 23 22 20 19 17 15 14 16 18 20 21 23 24 25 25 27 27 25 24 22 20 19 17 17 17 16 15 13 11 10 9 10 11 10 9 8 7 6 5 4 2 2 2 3 4 5 6 7 8 9 11 12 14 15 15 16 17 18 17 17
30 31 31 30 30 32 33 32 30 28 25 20 19 25 28 28 29 30 30 29 27 27 28 27 25 23 22 21 20 18 16 14 15 19 21 22 24 26 27 28 28 28 26 24 22 21 19 17 15 14 14 12 10 8 7 6 6 6 6 5 4 3 2 2 2 2 3 4 4 5 6 7 8 9 9 10 11 12 12 12 12 14 16 14 15
28 29 30 30 30 31 32 33 33 33 31 25 20 23 30 31 29 30 31 29 27 28 29 29 27 25 24 23 22 20 19 16 16 20 23 24 24 26 28 28 28 27 25 24 22 20 18 16 14 12 11 10 8 6 5 4 3 4 3 3 4 5 5 5 5 6 6 6 7 7 7 8 8 8 7 7 7 7 7 7 7 9 12 13 14
27 28 29 31 32 32 33 34 34 33 32 28 24 22 28 33 31 31 31 29 28 29 30 30 30 28 26 25 23 22 21 19 17 18 22 25 26 26 27 28 28 26 24 22 21 19 16 14 12 11 9 8 6 5 5 4 4 4 4 4 5 6 6 6 6 7 7 7 7 6 6 6 6 6 6 6 7 8 7 8 9 10 11 13 14
27 28 28 30 31 31 32 33 33 33 31 29 26 24 26 30 30 30 31 29 29 31 31 32 32 30 28 27 26 24 22 20 19 17 18 21 24 26 27 28 28 26 24 21 18 17 14 12 10 9 7 6 5 5 5 5 5 5 6 7 8 9 8 8 8 8 8 9 8 7 7 8 8 9 10 10 11 11 11 10 11 12 13 14 16
25 26 26 27 28 29 29 30 31 32 31 31 29 27 26 27 27 28 29 28 29 31 31 31 32 31 29 27 26 24 22 20 19 18 17 16 18 21 24 24 24 23 22 19 17 15 13 10 9 8 7 7 7 7 7 7 8 9 10 11 10 10 10 10 9 9 9 9 10 10 11 11 12 12 12 12 12 12 12 12 12 13 14 14 15
21 24 24 25 25 26 26 26 26 27 27 29 30 29 27 26 25 25 25 27 29 30 29 29 30 30 29 27 26 24 21 18 17 17 16 14 14 15 17 18 17 17 18 18 15 13 12 11 11 11 11 11 11 11 10 10 10 11 11 11 10 10 10 9 9 9 10 11 11 13 14 14 14 13 13 13 13 13 13 13 14 15 17 18 18
17 19 21 22 23 23 24 24 24 23 22 23 25 27 27 27 26 24 23 24 25 25 24 27 28 27 26 25 24 22 19 16 15 16 15 13 12 12 13 13 12 12 14 15 14 13 13 14 14 14 14 14 14 14 13 13 12 12 12 11 10 9 9 9 10 10 11 12 13 14 14 14 14 14 14 13 13 14 14 15 16 17 19 20 21
15 16 17 19 19 20 21 23 23 22 20 20 22 22 23 25 26 24 22 21 21 21 22 24 25 23 22 21 20 19 16 14 14 14 14 12 11 11 11 12 12 11 12 13 13 14 14 15 14 14 15 16 17 18 18 18 16 15 13 12 11 10 10 10 10 10 12 14 13 13 13 13 13 14 14 14 15 17 18 19 20 21 22 23 24
17 14 14 15 15 16 18 19 20 21 20 20 21 20 20 21 21 21 21 21 21 21 21 21 21 19 17 16 15 14 13 14 14 13 12 11 11 10 9 10 12 13 15 16 16 15 15 16 17 18 19 19 19 19 19 17 15 14 13 11 11 11 10 10 10 11 13 13 12 12 13 13 14 15 16 18 19 20 21 22 23 23 24 25 26
19 16 13 12 12 13 14 15 17 17 17 18 19 19 18 18 18 17 17 17 17 17 16 15 15 14 12 11 11 12 13 14 13 11 10 10 10 9 8 9 11 14 17 19 19 19 20 21 21 20 20 19 18 17 16 14 13 13 12 11 11 11 11 10 10 11 12 12 12 13 13 14 16 17 18 18 18 18 18 18 19 20 20 21 23
21 19 16 11 10 11 13 14 15 15 15 15 15 15 14 14 14 13 12 11 10 11 11 10 10 9 8 8 10 12 14 14 13 12 10 10 9 8 8 11 15 18 21 22 23 23 22 21 20 19 18 17 17 16 15 14 14 14 13 12 12 12 11 11 11 12 13 13 13 13 14 14 15 15 15 15 15 16 16 16 17 17 17 17 19
20 21 18 14 9 8 10 13 14 15 16 15 15 14 13 13 13 13 13 12 11 11 11 11 11 10 9 9 10 12 14 14 13 13 12 11 10 9 11 14 17 19 20 21 21 21 19 18 18 17 16 16 17 16 15 15 14 14 13 13 12 12 12 12 13 14 14 13 13 13 13 13 13 14 14 15 15 16 17 18 18 18 17 16 16
20 20 18 16 12 6 7 11 12 13 15 16 17 17 15 14 14 14 15 14 14 13 13 12 10 10 11 12 12 13 14 14 13 13 12 12 12 12 13 15 16 17 18 19 19 18 18 19 18 17 16 16 16 16 15 14 14 14 13 13 12 13 13 14 14 14 13 12 13 13 13 14 14 15 16 17 17 18 19 19 19 19 18 16 16
20 18 17 18 16 10 7 8 9 10 12 15 16 18 18 17 16 15 15 14 14 15 15 15 12 11 12 13 14 13 13 12 12 11 11 11 12 13 14 14 15 16 17 18 19 19 20 20 20 18 17 16 16 15 14 13 13 13 12 12 13 13 14 14 13 12 12 13 14 14 15 15 15 16 17 18 18 19 19 20 20 20 20 19 18
17 17 17 18 18 15 11 9 7 7 8 11 14 16 18 19 18 16 15 15 15 16 16 15 15 14 14 15 14 13 11 9 9 8 9 10 13 15 16 16 17 18 17 18 20 22 20 20 20 18 17 17 16 15 14 13 13 13 11 12 13 13 13 13 13 13 14 15 15 15 16 16 16 16 17 17 18 19 20 21 21 21 20 20 20
14 15 16 16 16 16 15 13 12 9 6 6 8 12 16 19 20 18 17 17 18 19 18 17 17 16 16 16 15 14 10 7 6 6 7 10 14 17 18 19 18 17 16 17 21 22 20 20 19 17 17 17 15 14 14 13 13 12 11 11 12 12 12 12 13 13 14 15 16 16 17 17 17 17 17 18 18 19 19 20 20 19 19 20 20
12 13 13 14 14 13 13 13 15 14 11 7 4 7 12 17 19 20 20 20 20 20 19 18 17 17 16 16 15 15 13 10 9 8 10 13 16 18 19 19 19 16 15 17 20 21 19 19 18 17 16 16 14 13 13 14 13 12 11 11 11 12 12 13 14 15 16 16 17 18 18 18 19 19 18 18 18 18 19 19 19 19 18 18 18
9 11 11 11 11 11 11 11 12 14 15 13 8 6 11 15 17 19 20 20 19 17 15 14 13 13 13 13 13 14 13 13 13 14 16 19 20 18 18 19 19 18 17 18 19 18 18 18 18 17 16 15 13 13 14 14 13 13 12 12 13 14 15 16 17 17 18 18 18 19 18 19 19 18 17 17 18 18 19 19 18 18 18 17 17
6 9 10 9 9 8 8 9 10 12 14 15 12 9 11 14 15 17 18 18 17 15 12 10 9 8 10 11 11 12 11 11 13 14 15 16 16 15 16 19 19 18 18 17 17 16 16 16 16 16 16 15 15 15 14 13 13 14 15 16 18 18 19 19 19 18 19 19 19 18 17 17 17 17 18 18 19 18 18 18 18 17 16 16 15
4 6 7 8 8 7 6 7 8 10 13 14 14 13 12 11 13 15 16 15 14 13 11 9 9 9 11 12 11 10 10 10 11 12 13 12 11 12 15 18 18 17 17 16 15 14 14 15 15 15 14 14 15 14 13 12 13 15 17 18 19 19 19 19 19 18 18 18 17 17 16 16 17 18 19 19 19 19 18 17 17 17 15 15 15
4 5 5 6 8 8 7 5 5 8 11 13 14 16 16 13 12 13 14 12 11 11 11 11 11 12 13 13 11 9 9 9 10 11 12 12 12 13 15 16 15 15 15 13 12 12 12 13 14 14 13 12 13 12 12 12 13 14 14 15 16 17 17 16 16 16 15 15 15 16 17 18 18 18 19 19 18 18 18 18 17 17 16 16 15
3 4 4 5 7 8 8 5 4 5 7 9 11 13 14 14 14 14 14 12 11 11 11 11 11 11 11 11 11 9 9 9 10 11 11 12 12 12 13 13 13 13 12 10 9 9 9 11 12 13 12 11 11 11 11 11 11 12 12 12 12 13 13 12 12 11 11 12 14 16 16 17 17 16 16 17 17 16 17 17 17 16 16 16 15
3 4 3 4 6 9 10 5 2 6 6 7 9 9 9 10 12 13 13 12 12 12 12 12 11 10 10 10 9 9 10 12 11 9 9 9 9 9 9 9 10 10 10 9 8 8 10 12 13 12 12 11 10 10 10 10 10 10 10 9 9 9 9 10 10 10 10 11 13 14 15 15 15 14 14 14 14 15 15 16 15 15 15 15 15
3 4 4 4 5 9 10 4 5 8 7 7 7 7 7 9 10 11 11 11 12 13 14 13 13 12 11 10 9 9 11 12 10 9 9 9 9 9 8 8 9 9 9 8 8 9 11 14 14 12 12 10 9 9 9 10 9 8 7 7 7 7 8 10 11 11 11 11 12 13 13 12 12 13 13 13 14 14 14 14 14 14 14 14 14
2 4 5 4 5 10 9 1 7 9 7 6 6 6 7 8 9 9 10 11 12 14 15 15 15 13 11 10 9 9 10 10 10 9 9 8 8 9 9 8 9 10 9 7 8 10 13 14 13 12 11 10 9 9 8 8 7 6 5 5 5 7 9 10 11 11 10 10 11 12 11 9 9 10 12 13 14 15 14 14 14 14 13 12 13
5 6 4 3 7 10 6 4 10 9 8 7 6 6 6 7 7 7 9 11 13 14 14 14 13 11 9 7 7 7 9 10 9 9 8 8 8 9 10 10 10 10 8 7 8 12 13 13 12 11 10 9 8 8 6 5 4 4 3 3 4 5 6 8 9 10 9 9 9 10 10 9 9 9 10 12 13 14 15 14 14 13 13 13 13
7 3 2 1 8 9 1 10 11 9 8 7 7 6 6 6 5 6 8 12 15 14 13 13 12 11 10 8 7 8 9 9 8 8 9 9 9 9 9 9 10 9 8 8 11 14 15 13 11 10 8 8 8 7 6 4 3 2 3 4 4 3 4 6 7 8 8 7 7 8 9 9 9 9 10 11 12 14 15 15 13 14 15 14 14
5 2 6 2 9 5 7 12 10 9 9 8 7 7 6 6 5 5 8 12 15 14 12 12 11 10 10 9 9 8 7 6 6 7 9 9 9 8 7 7 7 8 8 8 10 12 13 11 8 6 5 5 5 5 3 2 1 2 4 4 3 2 2 4 5 6 7 6 6 7 7 8 9 9 10 11 11 13 14 15 14 14 15 15 14
3 3 3 4 8 3 8 11 10 9 9 7 7 7 7 6 6 5 6 10 13 13 12 11 10 9 7 7 8 8 7 6 6 6 7 8 8 7 7 7 7 7 7 6 6 8 10 9 5 3 3 2 2 1 1 0 1 3 6 5 2 0 1 3 4 5 5 5 5 6 7 8 10 10 10 11 11 11 13 14 14 15 15 14 13
2 1 2 4 5 2 4 9 11 10 8 7 7 7 6 6 6 5 5 7 10 11 10 10 9 7 6 6 7 7 7 7 7 6 5 6 6 6 6 7 7 6 6 6 6 6 7 7 5 2 1 0 1 1 2 2 3 5 5 3 1 1 1 2 3 3 4 3 4 5 6 8 9 9 9 10 11 12 13 13 12 13 14 14 12
2 3 5 5 5 6 6 8 13 13 9 8 7 7 6 7 6 5 5 6 7 9 9 9 8 7 5 5 4 5 5 6 7 6 4 4 4 4 5 6 6 6 6 6 6 5 4 5 4 3 2 2 3 4 4 4 4 4 2 1 0 1 1 0 2 3 3 3 4 4 5 7 8 9 9 9 10 11 12 12 11 11 12 13 12
4 5 7 9 10 11 8 7 14 15 12 10 8 7 7 7 6 6 5 5 5 7 9 9 9 9 6 3 3 4 5 5 5 5 5 5 4 4 4 5 6 6 5 5 5 4 3 3 2 1 2 3 4 4 3 2 2 1 1 2 2 2 2 1 1 2 3 3 3 4 5 6 8 9 10 9 9 10 11 12 12 11 11 11 12
4 6 9 11 12 11 7 6 12 15 13 11 10 8 8 8 7 7 7 5 4 6 9 10 10 10 6 2 3 5 5 5 6 6 6 6 6 5 5 5 6 5 4 4 4 3 2 1 1 1 3 4 3 1 1 1 2 2 3 3 3 3 2 1 1 2 3 4 4 3 5 6 8 9 10 10 10 10 10 12 13 11 9 9 9
5 7 11 12 9 9 6 5 9 13 13 13 12 10 9 9 8 8 8 6 4 5 7 10 11 10 7 2 3 5 5 5 6 8 9 9 8 5 5 6 6 5 4 4 3 2 1 1 1 2 4 4 2 2 2 2 3 3 3 3 3 3 3 2 1 3 5 5 5 4 5 6 8 11 12 12 10 9 9 10 10 9 7 6 7
Wind_Direction
233 224 216 217 219 214 202 201 221 241 231 213 203 197 192 189 187 186 184 183 182 181 182 182 181 178 178 178 180 188 193 190 194 197 196 198 198 198 201 202 203 204 201 198 198 199 199 200 201 200 200 202 202 202 203 204 203 200 198 198 200 203 198 188 180 182 193 200 203 202 199 194 192 195 197 196 197 199 198 198 201 202 202 202 203
220 216 214 215 217 214 204 200 210 231 245 225 204 194 192 190 187 183 180 178 178 179 181 181 180 178 176 176 177 179 182 182 186 189 193 197 197 198 202 202 203 204 202 199 199 200 202 203 202 201 202 203 202 204 205 205 206 204 202 200 199 202 206 203 192 182 188 200 204 203 199 196 196 197 200 201 200 200 201 203 206 209 211 212 213
222 215 210 210 209 209 208 206 205 210 232 228 206 193 190 186 182 180 177 177 179 179 176 175 177 178 175 174 176 177 178 178 178 180 187 194 196 198 201 202 204 205 201 199 200 202 204 205 204 203 204 206 205 207 211 212 210 208 206 204 203 205 212 211 200 191 189 195 204 205 198 196 200 202 203 205 205 204 206 209 212 213 215 218 221
232 220 210 204 198 199 209 217 208 197 206 219 202 187 183 180 178 179 177 175 177 176 174 174 176 177 175 175 176 178 181 182 182 182 185 192 196 195 198 201 203 203 201 201 203 204 204 204 204 203 204 207 209 210 217 220 216 211 209 211 213 217 224 217 207 200 192 190 202 209 202 199 203 207 206 207 209 211 212 215 217 218 219 222 226
252 231 213 195 185 189 200 211 208 191 194 218 202 181 178 178 175 174 173 170 171 174 176 179 181 179 177 176 176 179 184 187 189 190 189 193 195 193 195 195 194 196 199 203 203 200 199 199 200 201 204 208 210 214 219 220 217 214 216 219 218 224 241 228 207 201 196 195 201 205 204 202 204 208 210 210 210 213 216 219 222 224 226 227 230
296 260 220 192 181 185 194 200 201 191 188 214 215 185 177 176 173 173 173 171 171 175 179 184 187 185 182 180 177 179 185 189 192 193 192 191 190 190 192 192 191 193 196 200 200 197 195 195 197 200 203 206 209 214 218 217 215 217 219 221 219 228 252 237 206 198 200 202 201 200 202 205 207 210 213 213 212 213 216 220 225 228 230 232 235
335 309 251 204 186 187 192 194 196 193 187 196 213 195 179 177 177 176 174 171 173 176 176 177 180 182 182 181 178 179 184 189 195 197 194 192 190 189 190 191 191 192 193 195 196 198 198 195 196 201 204 207 209 210 213 216 219 223 221 220 225 238 251 232 208 199 199 200 198 200 202 205 209 214 216 216 217 218 218 220 225 230 232 236 240
348 336 300 245 203 190 192 189 190 194 188 184 191 196 186 181 182 180 175 174 177 175 170 168 170 173 174 176 178 181 182 185 192 201 203 201 199 198 196 194 193 192 193 196 198 202 204 200 200 204 205 208 207 199 199 211 220 222 219 220 233 244 237 219 205 199 200 198 198 202 204 204 209 217 220 216 215 222 225 225 229 235 237 239 244
357 353 339 300 261 218 195 188 186 189 186 179 181 191 192 187 185 182 177 177 178 175 171 171 171 172 172 173 174 175 172 169 171 185 197 200 202 204 201 196 195 196 198 202 205 205 204 202 203 205 204 203 197 185 182 190 204 206 206 221 238 231 216 211 203 195 195 196 198 201 202 204 208 211 213 214 217 227 231 228 233 241 244 244 248
8 5 358 343 310 261 201 193 189 186 183 179 179 185 191 189 184 180 177 177 177 173 172 174 175 174 174 173 170 167 164 159 153 155 161 164 169 181 190 193 196 198 197 196 196 196 197 200 200 199 198 193 181 174 172 160 158 171 178 202 227 207 202 205 203 194 189 189 195 199 200 207 213 213 214 221 227 232 233 229 233 242 247 248 254
20 16 8 2 346 280 216 205 200 190 185 181 178 180 188 189 182 177 177 177 173 170 171 173 173 174 175 173 169 165 162 159 157 154 149 145 144 147 158 178 190 195 191 182 181 186 190 191 187 184 186 180 169 166 167 158 145 139 131 117 126 168 184 188 188 187 183 178 183 193 198 205 214 215 217 225 232 236 237 236 237 242 244 246 253
28 26 19 10 324 267 228 211 206 197 190 183 178 180 185 184 179 177 176 172 168 167 168 168 167 168 170 168 165 162 159 155 157 163 163 157 149 143 142 150 164 175 178 176 178 183 183 177 169 164 161 158 155 154 152 148 141 135 127 121 120 127 140 147 152 157 159 152 147 156 171 177 172 177 194 210 230 240 242 243 243 245 246 246 250
31 32 28 21 358 320 239 202 197 197 193 185 181 183 183 176 171 169 167 163 162 162 161 159 159 160 162 162 158 155 153 150 149 157 168 171 166 158 151 150 154 162 170 175 176 175 172 166 158 150 146 145 144 142 140 139 140 138 134 131 130 128 130 135 136 136 140 143 136 128 129 135 135 138 169 237 263 259 244 241 242 242 243 245 252
33 34 33 31 23 11 337 191 193 196 195 191 186 184 180 173 167 162 160 158 156 155 153 153 153 153 155 156 154 152 151 148 144 145 155 165 169 165 158 156 159 162 166 169 167 161 158 155 149 141 140 140 138 137 137 138 141 141 137 134 133 133 134 134 131 129 128 131 129 123 118 112 108 113 262 285 295 296 287 279 276 270 265 265 272
33 34 36 36 34 31 38 88 171 187 189 187 184 178 170 165 159 153 153 153 151 149 148 148 149 149 150 152 152 151 150 149 145 141 146 154 159 157 152 152 155 156 156 156 155 151 148 146 142 137 134 131 129 131 133 135 137 136 134 133 130 131 132 124 115 107 96 92 93 93 88 65 39 13 330 315 315 314 310 307 305 303 301 299 295
34 33 35 39 40 38 38 49 75 114 152 163 164 160 154 152 150 146 144 143 143 142 141 141 142 141 143 147 149 147 147 150 150 146 146 150 150 147 146 146 146 145 142 141 141 140 139 139 138 136 133 129 126 128 129 131 133 128 126 126 123 121 120 108 95 81 64 52 40 28 13 350 334 325 321 315 311 312 310 306 306 309 315 315 308
36 34 34 39 45 45 42 44 55 67 79 117 137 139 135 135 138 139 137 132 131 132 131 129 130 130 131 133 137 137 136 143 151 151 150 150 148 144 142 140 138 136 133 131 132 130 129 131 134 135 134 128 124 127 129 132 131 122 118 120 118 117 113 101 89 65 25 355 343 336 327 322 314 309 312 313 314 314 313 313 314 318 323 323 312
37 38 37 39 46 52 51 47 49 57 58 65 96 117 121 121 124 129 129 124 120 120 121 118 116 116 117 116 117 119 120 129 145 152 152 153 151 146 143 139 134 132 129 126 126 126 123 123 126 130 129 122 120 126 130 134 132 117 108 107 99 78 51 25 327 306 305 303 306 311 315 318 318 315 316 319 321 319 318 323 322 320 326 325 311
41 42 43 44 47 52 57 56 53 56 57 52 62 92 107 112 114 117 118 116 112 111 111 110 105 101 102 103 103 103 102 109 130 145 150 153 153 150 147 143 135 131 129 126 123 122 121 119 117 117 115 110 108 111 110 112 107 83 56 42 45 36 19 357 337 326 318 316 319 319 321 327 329 327 327 330 337 338 338 345 341 334 339 337 325
50 50 49 50 51 51 56 60 60 61 61 56 54 71 94 104 107 108 108 108 106 104 103 101 97 92 91 92 92 91 89 92 107 129 142 148 151 153 152 148 141 134 131 128 124 121 119 117 113 107 102 96 88 80 74 63 54 47 33 36 57 60 52 37 26 21 17 17 16 5 357 1 3 1 4 13 20 23 21 21 18 11 5 355 346
56 55 54 53 54 53 53 58 62 65 68 67 60 61 79 93 99 103 105 104 100 98 97 95 92 88 85 85 83 80 79 82 90 106 124 136 145 151 151 148 145 140 132 126 121 117 114 112 108 100 89 80 68 58 57 56 57 67 75 81 85 83 76 70 64 59 56 54 50 42 33 32 30 25 24 27 25 20 15 11 8 6 3 358 354
58 56 55 54 54 54 54 56 60 63 69 74 70 63 70 83 90 95 101 102 98 94 92 91 90 86 83 82 80 75 70 71 79 91 102 113 127 138 139 138 140 140 132 121 115 111 106 102 99 93 88 88 88 86 88 91 94 97 95 93 92 88 85 83 77 69 67 64 58 50 43 38 33 26 22 21 16 6 360 354 348 346 346 345 346
63 61 59 56 54 55 56 57 59 61 65 72 74 68 69 79 87 91 95 96 94 92 91 89 87 86 84 82 80 76 69 65 69 78 86 94 103 114 121 125 130 133 125 114 107 104 102 101 100 100 102 104 105 106 106 106 107 105 101 99 97 94 93 88 78 71 69 64 56 50 44 38 33 27 21 16 7 355 347 341 335 332 329 326 326
67 67 65 62 59 57 56 57 60 62 62 67 71 70 69 74 82 88 90 90 89 90 90 90 87 86 87 85 81 78 75 71 69 70 73 79 82 88 98 106 113 120 117 107 101 101 105 107 107 107 108 107 105 104 102 100 100 99 98 99 97 93 89 81 74 70 64 57 51 46 38 30 23 17 9 2 353 341 331 325 321 321 319 317 316
66 71 71 69 66 64 62 60 60 61 62 63 65 67 67 69 72 77 83 90 94 95 92 90 88 85 84 83 79 78 80 83 83 80 77 76 77 77 82 87 93 103 109 108 108 111 112 113 112 110 109 108 106 102 96 93 94 94 93 92 88 83 80 77 73 67 59 52 45 36 26 17 9 1 352 343 336 329 324 319 316 314 312 311 310
56 65 71 73 72 70 71 71 68 67 66 65 65 66 68 69 68 69 71 78 90 98 96 89 83 78 76 76 75 73 76 80 82 84 85 84 82 82 83 82 84 93 101 105 109 111 113 114 114 111 109 107 105 100 95 93 94 91 87 83 79 74 70 66 61 55 49 42 32 23 14 3 353 344 335 330 329 328 328 325 321 318 317 315 311
45 50 59 69 72 71 75 79 79 79 78 76 75 71 68 69 69 67 66 68 79 91 94 87 80 75 77 83 83 78 77 77 78 82 93 96 92 90 89 88 91 96 101 105 108 110 112 113 112 111 107 103 99 95 92 90 88 84 79 74 70 66 61 57 54 48 41 30 20 11 1 350 343 337 334 334 337 339 340 338 335 333 329 324 317
35 39 44 54 67 74 77 79 82 87 89 90 91 89 86 84 81 79 78 80 87 98 107 109 106 100 100 104 99 92 90 90 89 93 100 101 100 102 103 102 104 106 107 109 111 112 113 112 110 107 103 98 95 91 88 86 84 82 78 75 71 66 61 55 49 41 31 20 11 4 358 353 352 352 352 354 358 360 359 359 355 349 343 336 328
29 33 36 44 57 76 82 80 80 85 90 93 94 95 98 102 104 103 102 102 105 112 119 125 127 127 124 120 114 107 103 102 104 107 108 106 109 117 118 116 114 112 113 116 118 116 113 108 104 100 97 93 90 87 85 84 83 79 75 69 61 54 48 42 35 28 21 14 12 12 12 13 15 17 16 15 17 17 14 12 8 0 353 347 336
32 34 38 48 57 74 91 86 83 86 92 96 96 94 93 93 96 102 105 105 107 108 109 111 117 123 120 115 111 108 107 109 112 112 109 108 110 114 120 123 122 119 120 124 123 115 108 101 95 92 90 88 86 85 84 82 79 75 69 61 52 46 41 36 32 29 26 29 33 36 36 37 35 33 30 27 26 24 21 18 15 9 3 356 343
37 43 50 57 63 74 93 97 93 92 98 103 105 104 100 92 88 91 96 102 105 106 107 109 110 111 110 106 103 103 105 110 113 111 109 108 107 108 117 125 125 123 125 126 117 107 103 99 94 92 90 88 86 86 85 84 80 74 65 58 52 44 38 38 40 44 47 51 53 53 51 48 45 41 37 33 29 26 23 20 18 15 10 4 355
41 47 51 54 60 69 80 89 95 100 108 111 110 111 108 102 96 92 93 96 99 99 100 101 100 99 97 94 93 94 98 106 114 117 115 111 109 112 118 123 123 124 128 123 110 104 103 101 97 95 94 92 90 88 87 86 82 73 62 55 51 45 45 51 56 58 57 56 55 53 49 45 41 39 37 34 30 27 24 21 19 16 13 11 8
47 48 46 45 49 58 68 74 75 78 91 112 118 118 116 111 108 105 101 100 100 98 96 94 93 92 90 87 85 83 84 93 108 113 114 118 120 121 120 119 120 123 125 118 108 105 104 103 102 101 100 97 94 91 88 85 79 70 60 57 58 60 63 65 64 61 58 55 51 48 44 39 36 34 33 33 33 31 28 24 21 18 18 18 19
50 45 39 39 42 46 53 62 68 69 70 75 109 136 129 123 119 115 109 105 102 100 96 94 94 91 87 84 82 80 79 85 93 102 115 124 128 129 124 118 115 114 114 112 109 107 106 104 105 106 104 98 93 90 88 82 74 68 65 67 72 74 71 69 65 61 58 54 49 45 41 38 36 33 30 30 30 31 31 30 26 22 22 24 27
40 33 31 36 42 45 49 55 61 65 68 68 78 127 145 140 129 118 113 110 107 101 97 96 98 96 89 84 81 78 78 84 93 104 117 124 129 133 128 117 110 107 106 106 107 107 106 106 106 105 101 96 93 91 88 81 72 68 72 78 79 77 73 69 66 61 56 52 48 43 40 37 35 35 33 33 32 31 31 31 30 27 26 28 31
19 21 28 40 46 51 60 59 56 63 71 70 75 103 141 151 140 122 114 111 105 97 93 92 94 97 100 99 93 82 77 81 90 102 114 123 130 134 125 114 109 107 105 106 106 105 104 106 107 103 98 97 98 96 91 83 74 75 82 84 81 78 74 70 66 62 57 52 48 44 41 38 36 35 34 33 34 32 30 30 31 30 26 26 29
15 20 34 48 48 47 56 54 51 66 78 80 84 94 111 136 144 135 125 113 99 90 91 94 97 105 113 117 112 98 89 89 93 98 107 116 125 123 115 111 110 108 105 104 104 102 103 106 108 107 103 102 104 103 97 88 81 82 85 84 78 74 72 68 65 62 58 53 50 46 43 41 38 35 33 33 32 31 29 29 29 29 26 23 23
16 32 49 54 43 41 50 57 66 77 80 84 94 99 99 106 124 138 138 126 105 95 98 101 101 107 116 124 126 119 109 99 92 93 96 99 103 106 106 106 107 107 104 101 95 98 109 113 110 110 112 110 109 107 101 93 86 81 80 79 74 69 65 63 61 59 56 52 49 46 42 41 39 35 33 33 32 31 29 27 27 28 26 22 20
352 17 47 49 36 33 35 44 87 107 95 93 101 106 106 109 118 131 141 137 120 108 108 106 100 103 119 133 137 129 112 95 87 88 90 88 91 98 101 102 102 101 101 99 91 95 115 122 116 113 116 114 109 106 100 93 87 81 77 75 69 61 55 52 48 46 44 42 40 37 35 34 33 31 30 29 28 26 25 23 23 24 21 18 19
325 343 12 29 24 18 11 12 127 146 136 124 118 114 117 123 126 132 138 136 123 115 112 107 100 100 112 127 130 117 101 94 91 92 93 90 88 88 86 89 96 100 103 101 90 88 111 127 124 116 113 111 107 104 100 92 88 86 81 73 63 54 51 47 40 37 39 38 34 31 29 26 23 21 20 20 18 15 13 12 14 15 14 15 18
319 329 337 353 9 7 1 358 166 159 147 139 134 129 130 135 137 138 137 131 122 117 112 106 103 102 104 108 105 94 91 92 90 89 93 93 86 80 78 84 97 105 105 98 88 92 111 125 126 117 111 109 103 101 100 96 94 95 91 80 71 68 65 56 49 47 46 42 37 32 30 31 29 22 15 13 11 9 6 5 5 5 9 14 19
303 309 315 335 3 2 356 354 167 162 154 147 143 139 137 138 138 137 136 133 128 122 116 111 108 104 97 90 84 79 83 90 90 92 99 100 90 82 82 91 108 117 109 94 96 109 117 123 124 119 113 110 105 104 108 112 114 115 108 86 70 69 67 61 58 56 49 41 39 36 31 35 41 33 22 18 17 16 13 11 9 9 12 18 21
324 314 307 339 0 356 347 176 167 166 165 160 156 151 145 144 142 140 141 141 137 132 128 124 120 114 104 89 74 76 88 96 95 94 99 106 106 98 90 92 109 123 119 106 114 124 124 123 126 126 123 120 120 118 117 117 118 114 94 57 40 52 61 58 56 55 49 43 43 41 36 38 45 40 30 26 27 26 20 14 15 16 16 17 19
333 316 201 350 356 355 162 169 169 172 171 164 159 157 152 150 154 148 143 146 146 142 140 140 135 128 122 109 92 94 105 110 108 106 106 109 114 112 102 94 99 106 108 110 122 128 127 124 128 135 141 144 145 142 132 113 94 62 30 18 14 29 50 50 46 44 41 39 39 39 38 38 38 35 30 27 28 29 25 21 20 19 18 19 21
355 129 149 45 359 10 162 171 175 179 176 169 164 159 151 149 157 148 141 149 153 150 147 147 141 129 122 114 105 108 122 133 130 121 116 115 116 115 112 105 99 96 98 107 121 130 131 129 129 137 146 149 154 162 160 133 86 14 1 3 358 357 27 33 29 28 30 33 34 35 35 28 21 19 19 21 22 24 26 27 25 22 22 27 30
31 120 129 12 9 50 174 185 188 186 185 183 175 166 157 157 163 151 138 151 160 159 153 150 142 127 121 123 119 113 122 145 153 139 127 127 128 124 116 110 105 101 101 104 119 137 143 143 142 144 141 131 128 158 212 248 337 344 352 3 22 100 8 1 5 17 24 26 27 29 26 19 15 13 14 18 19 16 16 19 22 22 24 31 34
26 349 316 343 5 7 221 212 203 197 196 194 184 175 167 164 166 155 137 150 166 169 163 155 146 132 123 135 141 133 129 146 163 162 144 137 136 132 125 118 111 104 101 103 112 135 149 157 169 181 178 172 337 324 304 297 310 328 343 4 59 141 337 344 354 7 9 2 6 11 9 11 17 17 13 16 19 15 10 10 14 17 20 23 28
316 307 306 312 326 329 296 235 214 209 207 198 192 190 181 173 170 164 151 151 170 182 181 171 165 155 132 126 157 172 161 159 171 181 177 160 143 135 140 139 127 115 108 104 104 115 139 162 184 206 251 282 296 305 301 295 303 315 323 331 184 190 168 60 8 359 351 342 345 351 355 4 14 16 12 12 13 11 11 12 11 10 12 13 17
283 299 311 307 303 310 308 245 217 215 211 202 200 203 197 189 186 183 169 157 169 190 192 186 179 173 160 143 177 184 172 172 190 203 202 187 167 162 170 166 152 141 129 112 107 113 125 145 170 213 306 309 310 316 311 295 286 272 227 209 203 193 179 162 354 355 354 345 335 340 350 355 358 358 360 1 0 358 2 5 3 1 4 7 11
308 315 328 320 297 287 286 242 217 217 214 205 201 204 203 200 201 200 193 178 167 183 192 193 186 174 158 155 240 227 212 212 224 230 223 203 185 182 191 185 170 162 154 136 131 144 152 153 146 14 6 2 357 354 337 208 190 186 188 188 188 191 195 220 314 333 341 337 327 324 338 346 348 346 345 342 340 341 345 350 352 354 358 7 19
315 321 339 336 303 265 247 222 214 216 214 206 200 202 205 204 204 208 210 206 190 180 191 201 200 185 161 140 277 264 254 256 260 254 235 213 195 190 202 198 185 174 173 173 175 181 190 300 314 342 6 24 56 92 110 135 147 153 163 168 171 175 181 191 261 321 335 342 343 344 348 347 343 339 335 329 327 329 335 341 347 352 0 19 41